Aggius, Italy

4:21 PM CEST on April 29, 2017 (GMT +0200)
Aggius

Weather History for 16531 - April, 2014

Change the Weather History Date:

Wednesday, April 16, 2014

  Actual Average Record
Temperature  
Mean Temperature 51 °F -  
Max Temperature 62 °F 69 °F - ()
Min Temperature 40 °F 49 °F - ()
Degree Days  
Heating Degree Days 14    
Growing Degree Days 1 (Base 50)    
Moisture  
Dew Point 39 °F    
Average Humidity 64    
Maximum Humidity 93    
Minimum Humidity 24    
Precipitation  
Precipitation 0.00 in 0.06 in - ()
Sea Level Pressure  
Sea Level Pressure 30.09 in    
Wind  
Wind Speed 5 mph ()    
Max Wind Speed 13 mph    
Max Gust Speed -    
Visibility 7.6 miles    
Events      
T = Trace of Precipitation, MM = Missing Value Source: Averaged Metar Reports

Daily Weather History Graph

Daily Weather History Graph

Search for Another Location

Airport or City:

Trip Planner

Search our weather history database for the weather conditions in past years. The results will help you decide how hot, cold, wet, or windy it might be!

Date:

Astronomy

Apr. 16, 2014 Rise Set
Actual Time 6:41 AM CEST 8:02 PM CEST
Civil Twilight 6:13 AM CEST 8:30 PM CEST
Nautical Twilight 5:39 AM CEST 9:05 PM CEST
Astronomical Twilight 5:03 AM CEST 9:41 PM CEST
Moon 9:29 PM CEST (4/16) 7:17 AM CEST (4/16)
Length of Visible Light 14h 17m
Length of Day
13h 20m
Full, 99% of the Moon is Illuminated
Apr 16
Full
Apr 22
Last Quarter
Apr 29
New
May 7
First Quarter
May 14
Full

Hourly Weather History & Observations

Time (CEST) Temp. Windchill Dew Point Humidity Pressure Visibility Wind Dir Wind Speed Gust Speed Precip Events Conditions
12:20 AM 48.2 °F - 44.6 °F 87% 30.01 in - South 3.5 mph - N/A   Clear
12:50 AM 46.4 °F - 42.8 °F 87% 30.01 in - Variable 2.3 mph - N/A   Clear
1:20 AM 46.4 °F - 44.6 °F 93% 30.01 in - Variable 1.2 mph - N/A   Clear
1:50 AM 44.6 °F - 42.8 °F 93% 30.01 in - Variable 1.2 mph - N/A   Clear
2:00 AM 44 °F - 42 °F 89% 30.01 in 11 mi SSW 2.3 mph - -  
2:20 AM 42.8 °F - 41.0 °F 93% 30.01 in - Variable 2.3 mph - N/A   Clear
2:50 AM 44.6 °F 42.2 °F 42.8 °F 93% 30.01 in - SSW 4.6 mph - N/A   Clear
3:20 AM 50.0 °F - 41.0 °F 71% 30.01 in - NE 8.1 mph - N/A   Clear
3:50 AM 46.4 °F 43.5 °F 41.0 °F 81% 30.01 in - SSW 5.8 mph - N/A   Clear
4:20 AM 46.4 °F 44.3 °F 41.0 °F 81% 30.01 in - SW 4.6 mph - N/A   Clear
4:50 AM 42.8 °F 41.1 °F 39.2 °F 87% 30.01 in - SSW 3.5 mph - N/A   Clear
5:00 AM 42 °F - 39 °F 85% 30.01 in 11 mi SW 4.6 mph - -  
5:20 AM 42.8 °F 40.1 °F 41.0 °F 93% 30.01 in - SSW 4.6 mph - N/A   Clear
5:50 AM 42.8 °F 40.1 °F 39.2 °F 87% 30.04 in - SSW 4.6 mph - N/A   Clear
6:20 AM 41.0 °F 38.0 °F 39.2 °F 93% 30.04 in - SSW 4.6 mph - N/A   Clear
6:50 AM 42.8 °F 41.1 °F 39.2 °F 87% 30.04 in - South 3.5 mph - N/A   Clear
7:20 AM 44.6 °F 43.1 °F 39.2 °F 81% 30.04 in 6.2 mi SW 3.5 mph - N/A   Scattered Clouds
7:50 AM 44.6 °F 41.4 °F 41.0 °F 87% 30.06 in 6.2 mi SW 5.8 mph - N/A   Scattered Clouds
8:00 AM 46 °F - 41 °F 75% 30.06 in 11 mi SW 4.6 mph - -   Partly Cloudy
8:20 AM 46.4 °F 45.2 °F 41.0 °F 81% 30.06 in 6.2 mi Variable 3.5 mph - N/A   Scattered Clouds
8:50 AM 48.2 °F - 42.8 °F 82% 30.06 in 6.2 mi Calm Calm - N/A   Scattered Clouds
9:20 AM 50.0 °F - 42.8 °F 76% 30.09 in 6.2 mi Variable 2.3 mph - N/A   Scattered Clouds
9:50 AM 51.8 °F - 44.6 °F 76% 30.09 in 6.2 mi Calm Calm - N/A   Scattered Clouds
10:20 AM 55.4 °F - 39.2 °F 54% 30.09 in 6.2 mi NE 8.1 mph - N/A   Scattered Clouds
10:50 AM 57.2 °F - 39.2 °F 51% 30.09 in 6.2 mi NNE 12.7 mph - N/A   Scattered Clouds
11:00 AM 58 °F - 39 °F 38% 30.12 in 11 mi NNE 12.7 mph - -   Partly Cloudy
11:20 AM 59.0 °F - 41.0 °F 51% 30.12 in 6.2 mi NE 10.4 mph - N/A   Scattered Clouds
11:50 AM 59.0 °F - 41.0 °F 51% 30.12 in 6.2 mi NNE 9.2 mph - N/A   Scattered Clouds
12:20 PM 59.0 °F - 41.0 °F 51% 30.12 in 6.2 mi NNE 10.4 mph - N/A   Scattered Clouds
12:50 PM 59.0 °F - 41.0 °F 51% 30.12 in 6.2 mi NNE 8.1 mph - N/A   Scattered Clouds
1:20 PM 60.8 °F - 41.0 °F 48% 30.12 in 6.2 mi NE 9.2 mph - N/A   Partly Cloudy
1:50 PM 60.8 °F - 35.6 °F 39% 30.12 in 6.2 mi North 9.2 mph - N/A   Partly Cloudy
2:00 PM 60 °F - 33 °F 24% 30.12 in 11 mi North 9.2 mph - -   Partly Cloudy
2:20 PM 62.6 °F - 35.6 °F 37% 30.12 in 6.2 mi North 10.4 mph - N/A   Partly Cloudy
2:50 PM 60.8 °F - 37.4 °F 42% 30.12 in 6.2 mi North 10.4 mph - N/A   Partly Cloudy
3:20 PM 60.8 °F - 39.2 °F 45% 30.12 in 6.2 mi NNE 12.7 mph - N/A   Partly Cloudy
3:50 PM 60.8 °F - 41.0 °F 48% 30.12 in 6.2 mi NE 11.5 mph - N/A   Partly Cloudy
4:20 PM 59.0 °F - 39.2 °F 48% 30.12 in 6.2 mi NE 10.4 mph - N/A   Scattered Clouds
4:50 PM 60.8 °F - 39.2 °F 45% 30.12 in 6.2 mi NNE 10.4 mph - N/A   Partly Cloudy
5:00 PM 61 °F - 39 °F 32% 30.12 in 16 mi NNE 8.1 mph - -   Scattered Clouds
5:20 PM 59.0 °F - 33.8 °F 39% 30.12 in 6.2 mi NNE 11.5 mph - N/A   Partly Cloudy
5:50 PM 59.0 °F - 35.6 °F 42% 30.12 in 6.2 mi North 6.9 mph - N/A   Partly Cloudy
6:20 PM 59.0 °F - 32.0 °F 36% 30.12 in 6.2 mi North 8.1 mph - N/A   Partly Cloudy
6:50 PM 57.2 °F - 33.8 °F 41% 30.12 in 6.2 mi North 8.1 mph - N/A   Partly Cloudy
7:20 PM 57.2 °F - 33.8 °F 41% 30.12 in 6.2 mi NNW 6.9 mph - N/A   Partly Cloudy
7:50 PM 55.4 °F - 35.6 °F 47% 30.12 in 6.2 mi North 4.6 mph - N/A   Partly Cloudy
8:00 PM 54 °F - 37 °F 40% 30.12 in 16 mi NW 3.5 mph - -   Scattered Clouds
8:20 PM 53.6 °F - 37.4 °F 54% 30.12 in 6.2 mi WNW 3.5 mph - N/A   Partly Cloudy
8:50 PM 51.8 °F - 37.4 °F 58% 30.12 in 6.2 mi West 4.6 mph - N/A   Partly Cloudy
9:20 PM 50.0 °F - 37.4 °F 62% 30.15 in 6.2 mi SSW 4.6 mph - N/A   Partly Cloudy
9:50 PM 48.2 °F - 37.4 °F 66% 30.15 in 6.2 mi South 4.6 mph - N/A   Partly Cloudy
10:20 PM 46.4 °F 43.5 °F 37.4 °F 71% 30.15 in - South 5.8 mph - N/A   Clear
10:50 PM 44.6 °F 41.4 °F 35.6 °F 71% 30.15 in - SSW 5.8 mph - N/A   Clear
11:00 PM 44 °F - 36 °F 66% 30.15 in 16 mi SSW 5.8 mph - -   Scattered Clouds
11:20 PM 44.6 °F 41.4 °F 35.6 °F 71% 30.15 in - South 5.8 mph - N/A   Clear
11:50 PM 44.6 °F 41.4 °F 35.6 °F 71% 30.15 in - South 5.8 mph - N/A   Clear